weather.gov     
National Weather Service

Regional Weather Roundup
NWS Homepage
This page is being discontinued on March 12, 2014.
The same data is available at this site. Please update your bookmarks.
Thank you, and we apologize for the inconvenience.
Please send an email to SR-SRH.Webmaster@noaa.gov with any concerns.


Current Version
Previous Version:    01  02  03  04  05  06  07  08  09  10  11  12  13  14  15  16  17  18  19  20  21  22  23  24  25  26  27  28  29  
[Printable]
454
ASUS41 KAKQ 161110
RWRAKQ

REGIONAL WEATHER ROUNDUP
NATIONAL WEATHER SERVICE WAKEFIELD VA
700 AM EDT TUE SEP 16 2014

Note: "fair" indicates few or no clouds below 12,000 feet with no
significant weather and/or obstructions to visibility. * = Denotes
station may not report precipitation (e.g., rain,snow,etc.),
thunder or fog.

VAZ042-051-052>054-056-161200-
NORTHERN VIRGINIA

CITY           SKY/WX    TMP DP  RH WIND       PRES   REMARKS
WASH NATIONAL  MOCLDY    67  60  78 W3        30.02S
DULLES         MOCLDY    57  57 100 CALM      30.03R
FORT BELVOIR   MOCLDY    60  59  97 CALM      30.03R
QUANTICO       MOCLDY    63  61  93 NW5       30.03R
FREDERICKSBRG* PTCLDY    62  62 100 CALM      30.02R
STAFFORD*      FOG       58  58 100 CALM      30.06S VSB 1
WARRENTON      CLOUDY    58  58 100 CALM      30.02R FOG
CULPEPER*      CLOUDY   N/A N/A N/A CALM      30.03S FOG
MANASSAS*      CLOUDY    59  57  94 CALM      30.02S
LEESBURG*      MOCLDY    59  59 100 CALM      30.03R
WINCHESTER     CLOUDY    63  55  77 CALM      30.04R
FRONT ROYAL*   CLOUDY    59  55  88 CALM      30.04R
LURAY*         CLOUDY    61  61 100 CALM      30.04S
$$

VAZ048-049-060>072-079>083-161200-
CENTRAL AND SOUTH CENTRAL VIRGINIA...AND NORTH CENTRAL NORTH CAROLINA

CITY           SKY/WX    TMP DP  RH WIND       PRES   REMARKS
RICHMOND       PTCLDY    67  64  90 SW5       30.02S FOG
CHESTERFIELD*  PTSUNNY   64  55  72 W3        30.05S
PETERSBURG*    FOG       64  63  96 CALM      30.04S VSB 1/2
HANOVER        CLEAR     64  63  96 SW3       30.04R FOG
TAPPAHANNOCK*  PTCLDY    65  62  90 CALM      30.03S
CHARLOTTSVILLE FOG       61  60  97 CALM      30.03R VSB 1/4
ORANGE*        MOCLDY    59  57  94 CALM      30.04R FOG
LOUISA*        PTCLDY    63  63 100 CALM      30.02S FOG
FARMVILLE*     FOG       63  63 100 CALM      30.02S VSB 1/4
CREWE*         MOSUNNY   67  65  93 CALM      30.03S
FORT PICKETT*  PTSUNNY   61  61  98 SW5       30.04R VSB 1/4
LUNENBURG*     CLOUDY    66  65  97 CALM      30.04S
SOUTH HILL*    MOCLDY    66  66 100 CALM      30.09S FOG
LAWRENCEVILLE* CLOUDY    64  64 100 CALM      30.05R
ROANOKE RAPIDS CLOUDY    64  63  94 SW3       30.05R FOG
RALEIGH        MOCLDY    68  65  90 CALM      30.06R FOG
$$

VAZ088>098-161200-
SOUTHEAST VIRGINIA

CITY           SKY/WX    TMP DP  RH WIND       PRES   REMARKS
NORFOLK        PTCLDY    68  63  84 SW9       30.03S
VIRGINIA BEACH MOCLDY    67  63  87 SW7       30.02F
NORFOLK NAVAL  MOCLDY    70  64  81 S8        30.04R
WEST POINT*    NOT AVBL
NEWPORT NEWS   CLOUDY    72  65  78 SW10      30.03R
LANGLEY AFB    MOCLDY    69  68  97 SW9       30.02S
FORT EUSTIS    CLOUDY    68  68 100 S3        30.02R
WILLIAMSBURG*  MOCLDY    70  64  83 SW5       30.04S
HR EXEC AP*    MOSUNNY   64  61  88 S3        30.05S
FRANKLIN*        N/A     64  64 100 CALM      30.04S
WAKEFIELD      PTCLDY    65  63  93 S3        30.03R FOG
$$

VAZ020-022-025-037-045-161200-
WEST CENTRAL AND SOUTHWEST VIRGINIA

CITY           SKY/WX    TMP DP  RH WIND       PRES   REMARKS
STAUNTON*      PTCLDY    58  55  92 CALM      30.08R FOG
HOT SPRINGS VA CLOUDY    54  52  93 W9        30.15R
LYNCHBURG      PTCLDY    60  60 100 SW3       30.07R
DANVILLE       FOG       62  60  93 CALM      30.06S VSB 1
SOUTH BOSTON*  NOT AVBL
MARTINSVILLE   FOG       60  60 100 CALM      30.09R VSB 1/4
ROANOKE        PTCLDY    65  57  75 W10       30.09R
BLACKSBURG     MOCLDY    63  63 100 W6        30.14R
DUBLIN*        CLOUDY    63  60  91 CALM      30.13S
MARION*        CLOUDY    64  62  94 W6        30.16S FOG
HILLSVILLE*    PTCLDY    61  59  95 NW7       30.13S
RICHLANDS*     CLOUDY    65  63  91 CALM      30.14S
WISE*          CLOUDY    63  63 100 W3        30.15S
ABINGDON*      CLOUDY    65  65 100 W3        30.13S FOG
$$

MDZ021>025-VAZ099-100-161200-
SOUTHERN MARYLAND AND THE DELMARVA PENINSULA

CITY           SKY/WX    TMP DP  RH WIND       PRES   REMARKS
PATUXENT RIVER PTCLDY    66  62  87 W6        30.01R
BAY BRIDGE APT   N/A     64  63  94 W7        30.00S
LEONARDTOWN    CLEAR     64  61  88 SW3       30.03S
DOVER          CLOUDY    63  63 100 S5        29.98S
GEORGETOWN     LGT RAIN  64  61  90 S8        30.01R
EASTON         PTCLDY    64  64 100 CALM      30.04S
CAMBRIDGE      PTCLDY    70  64  83 W5        30.00S
SALISBURY        N/A    N/A N/A N/A MISG        N/A
OCEAN CITY     CLOUDY    69  64  84 SW6       30.01S
WALLOPS ISLAND LGT RAIN  69  65  86 SW8       30.01S
ACCOMACK*      CLOUDY    66  63  88 SW6       30.02S
$$

NCZ012>017-030>032-161200-
EASTERN NORTH CAROLINA

CITY           SKY/WX    TMP DP  RH WIND       PRES   REMARKS
ELIZABETH CITY NOT AVBL
AHOSKIE*       MOCLDY    64  64  97 CALM      30.05S
EDENTON*       MOCLDY    71  67  86 SW3       30.05S
CURRITUCK*     MOCLDY    67  65  93 CALM      30.05S
KILL DEVIL HLS MOCLDY    70  64  83 CALM      30.04S
MANTEO         MOCLDY    71  65  81 SW3       30.05S
CAPE HATTERAS  MOCLDY    66  66 100 W3        30.05S
TARBORO*       CLOUDY    68  66  94 CALM      30.06R
GOLDSBORO      PTCLDY    69  69  98 S1        30.04R
WASHINGTON     MOCLDY    68  66  94 CALM      30.06S
GREENVILLE     CLOUDY    68  68 100 CALM      30.07S
NEW BERN       PTCLDY    70  66  87 CALM      30.06S
WILMINGTON     MOCLDY    71  70  96 CALM      30.04S
$$

VAZ048-161200-
ELSEWHERE

CITY           SKY/WX    TMP DP  RH WIND       PRES   REMARKS
HARRISBURG PA  PTCLDY    58  54  86 CALM      29.99F FOG
BALTIMORE      MOCLDY    59  58  96 W5        30.00S
ANNAPOLIS      CLEAR     64  61  90 W5        30.00S
ANDREWS AFB    CLOUDY    64  62  94 NW3       30.01S
WILMINGTON DE  CLOUDY    61  59  93 NW3       30.01R
PHILADELPHIA   LGT RAIN  62  59  90 W3        30.00R
WILDWOOD NJ*   MOCLDY    66  61  82 S9        30.01S
ATLANTIC CITY  CLOUDY    64  59  83 S6        30.00S
HENDERSON NC   MOCLDY    66  64  94 SW5       30.05S FOG
GREENSBORO     CLOUDY    68  66  93 W6        30.07R
ROCKY MOUNT    MOCLDY    66  65  96 CALM      30.06R FOG
FAYETTEVILLE   CLOUDY    71  70  96 CALM      30.05R
CHARLOTTE      CLOUDY    70  67  90 W3        30.07S
$$

VAZ100-161200-
MARINE

STATION/POSITION TIME  TEMP    WIND        PRES    WAVE   SWELL
                       AIR SEA DIR/SP/G            HT/PER HT/PER
                 (UTC) (F)     (DEG/KT/KT) (MB)    (FT/S) (FT/S)
44066 TX TWR #4  1100   67 74   60/  2/  4 1016.9F   2/ 7   2/ 7
CAPE MAY NJ      1100   66 75  170/  6/  7 1015.4
LEWES DE         1100   66 72  190/  4/  5 1015.5
15NM E FENWICK I 1100   69 72              1015.8F   2/ 8
OCEAN-CITY-INLET 1100          210/ 11/ 13   N/A
WACHAPREAGUE VA  1100   69 73  240/  4/  7 1016.4
THOMAS POINT MD  1100   65 74  270/  9/ 11 1017.0R
GOOSES REEF MD   1100   69     280/ 14/ 16 1016.4R
COVE POINT MD    1100   67     270/  8/ 11 1016.0
SOLOMONS ISLAND  1100      76                N/A
BISHOPS HEAD MD  1100   70 71  270/ 16/ 20 1015.9
PINEY POINT MD   1100          290/  8/ 10   N/A
POTOMAC MD       1100   69     270/ 14/ 16 1015.7S
CAMBRIDGE MD     1100   68 75  250/  5/  7 1015.7
LEWISETTA VA     1100   67 73  250/  6/  8 1016.1
RAPPAHANNOCK LGT 1100          220/ 15/ 16 1016.9
STINGRAY PT      1100   70     240/ 14/ 16   N/A
YORK RVR RNG VA  1100   70     230/ 11/ 12 1016.1
YORKTOWN VA      1100   69 76  220/  7/  9 1016.1
JAMESTOWN VA     1100   69     230/  6/  8   N/A
DOMINION TERM VA 1100   68     210/  8/ 10 1016.9
KIPTOPEKE VA     1100          220/ 12/ 14   N/A
CHES BAY BRIDGE  1100          190/ 10/ 13   N/A
CAPE HENRY VA    1100   67     200/  8/ 11 1015.6
CHESAPEAKE LGHT  1000   71     220/ 13/ 14 1017.5R
WILLOUBY STN VA  1100   70     210/ 12/ 15 1015.4
S CRANEY ISL VA  1100          170/  6/  9 1016.6
CAPE HENRY BUOY  1100      76                N/A     2/13   2/13
1ST LANDING BUOY 1100   70     210/ 12/ 16 1016.5R
CAPE CHARLES BUO 1100      75                N/A     2/13   2/13
OFFSHORE WE BUOY 1100      74                N/A     2/13   2/13
64NM E OF VA BCH 1100   73 79  220/  8/ 10 1016.9S   2/ 7   2/ 7
DUCK PIER NC     1100   72 76  210/  5/  6 1016.7
44100 DUCK FRF   1100      74                N/A     2/13   2/13
44056 DUCK FRF   1100                        N/A     2/ 7
OREGON INLET NC  1100   72 74  260/  2/  4 1017.5
HATTERAS NC      1100   74 77  280/  5/  5 1018.0
DIAMOND SHLS NC  1100   76     290/  6/ 10 1017.5R   3/ 8   2/ 8
CAPE LOOKOUT NC  1000   76      CALM  /  2 1017.3R
$$




U.S. Dept. of Commerce
NOAA National Weather Service
1325 East West Highway
Silver Spring, MD 20910
E-mail: w-nws.webmaster@noaa.gov
Page last modified: May 16, 2007
NATIONAL WEATHER SERVICE: for Safety, for Work, for Fun - FOR LIFE